sat.trackr.live / text

‹ back to catalog

SHIJIAN-6 02B (SJ-6 02B)

NORAD 29506 · 2006-046B

PAYLOAD ACTIVE UNKNOWN

§ Identity

Operator
Country
PRC
Launch date
2006-10-23
Launch site
TAISC
Launch vehicle
Mass (kg)
RCS (m²)
2.48

Purposes: science

External: N2YO · Heavens-Above · Gunter

§ Orbital elements

Epoch: 2026-09-19T21:56:06.900000Z

Period
95.91 min
Inclination
97.6977°
Eccentricity
0.0015975
Mean motion
15.01482247 rev/d
Perigee alt
551.2 km
Apogee alt
573.4 km
Semi-major
6,940.5 km
B*
3.0672e-5
RAAN
291.3152°
Arg perigee
111.0056°
Mean anomaly
249.2880°
Rev number
8,495

§ Raw data

SHIJIAN-6 02B (SJ-6 02B)1 29506U 06046B   26262.91396875  .00000337  00000+0  30672-4 0  99982 29506  97.6977 291.3152 0015975 111.0056 249.2880 15.01482247 84956

JSON: /api/v1/satellites/29506 · /tle

For live sub-satellite position, see the globe view (requires WebGL).

§ Visibility from observer

Set your observer location to see the next 7 days of passes ≥ 10°. The values pass through the URL so the page stays shareable.

No JS? Fill the form by hand. The geolocation button needs JavaScript.

§ Radio — SatNOGS DB

ModeDescriptionDownlinkUplink
FM S-band telemetry 2.256 GHz

1 transmitter · refreshed weekly from db.satnogs.org